Theta_e
319 318 318 318 318 319 319 322 322 322 323 322 322 322 323 322 320 316 309 314 319 330 329 314 313 311 315 312 312 309 297 296 299 300 304 308 307 318 326 327 329 337 336 337 339
318 318 317 317 318 318 319 320 321 322 322 322 322 322 322 321 313 308 320 335 340 337 313 310 307 309 308 310 309 306 297 299 306 306 304 304 306 315 318 319 332 336 340 340 337
318 317 317 317 317 317 317 317 318 320 321 321 320 321 321 320 309 313 342 334 339 335 314 311 312 310 306 306 306 305 300 304 308 308 307 304 305 309 315 315 323 333 336 337 335
317 317 317 316 316 316 316 317 317 319 319 319 319 320 321 315 302 316 342 337 340 322 311 309 309 303 298 298 305 302 307 307 306 308 303 303 305 305 308 311 320 329 338 336 333
318 317 316 316 316 315 315 316 316 317 316 316 318 320 316 310 312 327 340 338 322 313 307 308 306 304 299 300 301 300 304 306 308 304 301 304 302 302 308 316 319 321 333 335 333
318 316 315 316 315 315 316 315 315 316 315 316 318 320 314 304 319 327 321 317 312 309 313 312 309 306 302 301 298 303 303 304 304 303 300 299 301 302 313 319 318 316 313 316 329
316 315 315 315 315 315 317 317 317 318 317 318 319 318 310 307 321 321 316 311 312 312 311 312 310 304 304 300 304 303 297 301 301 302 301 303 299 300 314 322 321 320 331 335 335
314 315 314 315 315 316 318 319 319 319 319 319 320 315 306 322 320 318 314 313 313 313 313 313 310 305 300 303 303 299 296 291 299 303 304 302 294 309 317 320 320 327 331 331 333
314 314 314 314 315 316 318 318 318 318 319 319 314 312 311 325 320 320 316 314 316 314 313 318 307 301 302 295 294 296 291 294 297 303 302 300 303 312 316 319 325 326 327 328 328
313 313 313 313 314 316 316 317 319 316 318 319 317 310 317 313 314 317 317 317 312 311 309 307 302 297 295 292 288 294 293 294 295 298 301 297 305 312 317 321 323 323 324 324 324
313 313 312 313 313 314 314 311 310 310 314 311 312 313 318 322 319 314 317 313 313 308 301 305 297 295 299 300 301 304 301 300 300 304 301 299 308 310 315 317 319 319 320 321 322
313 312 312 312 313 313 312 308 313 316 308 318 316 316 318 321 312 313 316 308 307 302 305 302 297 304 308 306 303 302 299 299 306 308 305 306 306 310 313 314 317 317 317 317 318
312 312 312 312 312 309 311 313 318 318 306 313 318 315 315 316 309 309 312 310 305 302 303 301 303 309 306 303 301 298 296 295 296 302 305 302 301 306 313 315 316 316 316 316 316
312 312 311 311 308 314 314 321 320 317 303 309 313 315 315 314 309 315 314 311 306 303 304 303 308 307 303 302 300 293 299 298 297 294 289 299 288 303 308 309 311 311 311 312 314
312 312 311 311 306 309 317 319 319 318 292 312 312 321 316 310 312 310 316 311 305 305 306 304 305 302 301 300 302 297 299 296 296 291 288 291 286 294 307 305 307 309 311 311 313
313 312 311 310 307 310 314 315 314 301 293 306 313 310 309 311 312 312 311 312 311 307 307 306 311 307 303 304 303 302 295 294 291 287 282 289 288 297 302 305 307 310 311 312 313
313 312 309 313 311 318 314 311 298 294 309 305 307 308 307 307 310 310 307 304 299 295 297 305 302 305 305 298 300 295 291 282 282 282 284 292 291 292 306 309 309 309 311 312 312
311 309 309 311 314 311 312 305 293 302 303 311 310 310 305 306 307 308 305 301 305 302 297 297 295 304 304 299 292 292 291 284 278 280 284 293 296 299 310 312 312 312 309 312 310
308 313 314 316 313 313 308 297 297 303 310 308 307 304 302 306 306 305 302 300 303 305 297 297 295 303 305 303 298 292 288 293 288 288 285 288 300 307 309 309 311 308 308 310 310
307 313 315 319 318 310 303 298 303 309 312 310 300 304 300 302 300 299 298 303 303 304 301 297 290 300 301 301 299 294 295 286 286 281 280 286 294 295 303 306 306 306 304 309 311
309 312 318 320 318 310 300 303 307 311 312 309 305 303 303 301 303 301 301 302 303 301 301 295 293 295 299 294 293 292 289 291 288 287 281 281 286 304 304 305 305 303 304 309 311
309 306 322 322 307 306 302 306 306 308 313 309 309 306 304 303 301 300 301 301 304 303 297 299 294 289 294 300 301 297 293 293 285 285 288 288 287 306 305 305 305 304 305 304 312
304 309 322 320 303 303 305 305 308 308 309 308 306 307 304 301 296 301 302 304 303 303 300 298 292 286 289 292 297 296 299 297 294 291 286 285 286 302 307 307 309 306 303 304 304
308 304 309 310 309 303 303 303 303 310 308 309 307 308 304 301 300 299 301 305 304 305 314 305 294 292 287 291 294 293 297 298 295 286 288 289 291 296 297 299 300 300 302 303 304
312 304 308 299 301 302 304 303 300 299 306 307 305 304 302 297 299 299 302 303 304 310 302 298 290 292 294 297 297 296 296 296 296 294 290 292 293 295 299 299 299 300 301 304 305
305 304 306 303 305 304 303 301 302 302 303 303 302 304 303 299 301 299 302 302 300 300 297 299 291 294 293 298 298 295 297 296 296 295 294 293 291 297 300 301 303 303 303 303 305
309 312 307 302 302 301 301 302 302 302 303 304 304 302 302 304 306 305 305 303 302 301 296 297 295 292 288 297 296 290 295 296 297 298 297 294 299 303 299 300 301 300 304 304 306
Wind_Speed
16 15 14 14 13 13 13 12 11 11 12 11 11 11 11 11 13 5 9 14 10 14 2 5 7 10 8 7 9 7 2 6 11 11 17 11 4 5 14 10 6 7 20 16 17
17 16 15 14 13 13 13 12 12 11 12 10 10 10 10 10 6 12 15 15 9 16 5 9 8 10 5 10 7 8 5 9 14 10 11 8 10 6 4 12 21 19 19 19 18
16 16 15 14 13 13 12 12 12 11 11 10 10 11 9 9 6 9 4 19 12 13 8 9 9 9 8 7 9 8 7 12 18 10 9 7 9 7 8 6 12 21 20 16 12
16 16 15 14 14 13 12 12 11 12 11 10 9 10 8 5 4 3 5 20 13 8 6 6 9 7 5 8 11 8 15 15 13 12 4 7 7 7 5 4 11 11 19 12 9
16 16 16 15 14 13 13 13 12 11 10 10 10 9 5 5 12 7 8 9 9 7 8 9 7 8 9 8 8 8 12 12 16 10 5 5 6 4 7 11 11 12 14 16 10
15 17 17 16 15 14 13 12 12 12 11 9 9 8 3 8 7 14 11 8 8 8 8 10 10 11 10 11 7 9 13 13 10 9 5 3 5 1 5 9 8 7 3 5 10
17 18 17 16 16 15 13 11 11 10 10 9 8 5 6 19 8 10 11 8 8 11 11 12 14 4 8 7 12 8 4 6 5 9 8 8 4 4 8 13 8 2 13 18 19
19 18 17 16 16 16 13 11 11 11 10 8 6 5 10 10 17 11 11 10 11 15 16 15 9 5 2 7 10 6 4 4 9 9 7 10 7 5 10 12 10 16 16 17 17
20 19 18 17 16 15 13 12 13 12 9 6 4 5 10 3 7 16 12 14 17 15 7 8 5 3 8 4 7 5 7 10 11 12 7 8 7 4 9 13 15 15 15 14 13
20 20 19 17 16 14 14 11 5 7 5 9 9 5 9 10 8 8 10 11 9 8 6 3 2 3 5 1 8 7 9 9 9 5 6 8 8 7 8 17 15 13 13 11 10
22 20 19 18 16 13 10 1 1 2 6 13 10 9 6 17 9 6 10 9 7 7 8 8 4 9 15 14 10 7 9 5 13 7 5 8 10 9 10 12 16 13 11 11 8
23 22 20 18 15 10 5 5 11 7 9 21 21 20 22 9 11 12 9 6 7 9 9 4 10 17 13 3 6 8 6 8 9 7 6 9 10 9 9 9 16 14 10 10 8
24 23 20 18 14 5 8 14 13 14 7 18 15 14 21 12 10 12 12 13 8 10 12 10 8 6 7 6 4 2 6 8 4 7 3 2 6 8 9 15 15 14 12 9 8
24 23 20 18 5 4 7 13 15 11 5 8 19 20 15 8 8 18 17 12 8 16 14 7 8 6 2 5 2 3 8 9 9 7 1 4 3 5 14 14 14 13 11 9 8
25 23 18 8 10 5 8 12 4 3 4 5 6 19 9 9 14 19 17 12 15 15 3 6 3 5 5 4 8 2 8 6 5 7 5 10 4 7 16 12 14 14 13 11 10
24 22 18 5 5 15 12 15 5 1 7 4 5 7 12 12 16 20 12 9 6 7 5 7 7 4 3 7 7 3 4 7 5 3 3 14 8 7 16 19 16 17 16 16 13
28 21 8 7 7 3 9 1 2 5 6 4 7 9 12 13 12 7 10 8 5 3 4 9 4 4 8 4 5 5 4 3 5 1 9 8 6 12 15 19 19 19 17 15 13
33 26 11 10 7 7 5 2 6 10 11 6 13 25 14 16 15 20 12 8 10 7 1 2 6 2 6 5 4 2 7 6 3 3 7 7 3 5 15 11 10 7 11 16 11
31 3 4 7 13 3 1 4 5 6 6 4 9 16 15 14 12 21 8 8 5 9 4 1 3 10 7 6 8 3 3 5 2 5 5 3 5 7 11 11 8 10 16 16 13
7 5 5 6 12 4 1 6 9 13 9 8 10 13 11 12 6 7 3 2 7 7 7 3 3 3 6 5 2 5 3 5 4 2 6 4 4 7 9 11 12 13 13 17 14
3 5 3 13 7 2 4 7 13 16 7 6 9 13 15 23 10 5 6 9 4 7 9 5 6 5 8 4 6 1 2 4 5 4 3 3 5 10 16 14 14 12 13 16 15
6 4 3 6 2 4 6 11 16 19 6 10 12 17 7 7 6 7 0 5 9 9 6 2 4 0 5 7 6 9 5 6 6 6 1 2 7 5 9 10 9 12 14 12 17
5 5 4 3 3 5 8 14 10 10 10 3 4 11 6 2 3 4 4 7 9 8 3 3 1 3 9 9 6 4 4 2 1 3 3 2 6 4 7 9 10 9 10 10 10
4 5 6 4 4 6 7 7 10 3 2 2 2 8 5 3 3 2 5 5 8 6 10 9 3 5 7 4 3 6 5 6 6 3 5 7 5 5 7 10 10 8 10 11 11
2 4 3 5 7 13 8 5 8 10 4 5 5 9 14 2 1 1 4 7 9 8 5 7 4 1 4 6 14 11 11 10 7 10 9 11 10 8 14 14 14 14 12 15 16
5 5 5 8 8 9 8 7 8 7 9 4 5 15 5 4 6 3 6 6 1 3 4 2 3 2 5 8 11 14 12 11 12 12 9 8 9 8 10 9 13 19 19 19 19
6 7 4 7 6 7 7 8 9 8 7 9 1 4 10 7 3 6 3 6 3 2 4 8 6 5 7 10 9 9 5 7 8 10 5 7 10 22 8 5 7 4 14 15 16
Wind_Direction
326 322 317 311 304 298 295 294 292 292 291 297 300 309 317 319 305 221 234 223 192 220 163 255 199 236 228 218 225 208 261 244 257 260 266 315 304 136 122 131 128 88 124 143 146
327 323 319 313 306 298 294 292 294 290 290 294 306 316 318 324 277 242 228 216 212 170 197 226 200 229 230 216 227 197 189 244 252 273 312 333 24 25 98 109 108 116 131 152 150
329 322 316 312 306 300 294 288 288 293 294 304 314 318 319 318 275 243 316 195 166 165 215 220 199 209 221 204 240 231 218 240 255 271 315 336 357 349 92 77 130 138 145 155 154
328 325 320 315 306 302 295 289 289 293 301 307 310 308 307 264 278 18 81 168 166 173 240 245 236 216 222 227 230 197 227 243 269 270 325 319 325 332 42 69 64 120 144 147 155
327 327 321 317 309 304 296 292 293 293 297 301 303 306 297 233 248 156 138 132 140 188 205 222 252 197 217 228 243 210 232 230 245 265 246 306 308 303 73 86 79 94 141 161 169
328 330 326 320 314 305 296 294 289 290 289 289 293 302 231 256 238 143 161 163 183 177 213 232 237 219 220 232 224 241 218 228 245 254 244 195 275 140 101 104 96 105 134 188 174
333 333 327 321 313 305 295 285 277 270 275 281 284 275 256 242 175 166 163 189 190 186 226 233 229 248 228 279 254 262 276 225 251 243 222 163 250 273 143 101 102 125 74 57 52
337 331 326 322 314 307 299 291 282 279 275 267 265 258 253 251 219 226 181 203 212 199 221 262 243 287 313 296 330 278 305 253 254 241 235 108 240 133 124 105 71 78 68 63 51
338 333 328 324 318 312 303 296 291 288 267 222 217 238 256 220 173 208 179 214 202 220 228 271 10 228 305 279 313 263 220 234 249 202 188 128 138 122 103 113 87 82 74 68 52
338 334 329 325 322 318 305 282 289 311 199 184 261 240 253 221 192 201 204 230 175 212 214 190 220 226 272 211 231 234 228 247 207 149 155 141 133 142 118 106 106 93 84 74 66
337 333 328 324 321 323 325 199 144 211 246 199 188 235 295 211 175 214 201 235 225 185 210 200 163 221 227 227 241 280 336 276 125 128 121 181 142 148 131 114 115 106 96 89 71
337 332 327 322 315 317 296 241 249 260 265 223 247 229 257 218 177 182 183 208 211 213 219 213 227 230 220 73 1 331 335 18 118 144 136 116 145 156 140 135 112 110 103 100 88
335 331 327 322 315 276 222 232 249 288 295 283 223 231 246 185 182 175 180 218 224 226 227 219 190 71 53 332 307 317 28 14 31 352 64 88 131 140 81 99 103 101 102 95 103
330 329 326 323 299 271 231 251 243 256 290 265 224 233 244 188 209 174 186 207 221 233 244 217 132 126 155 268 293 52 23 12 1 33 231 68 275 165 131 120 116 119 122 121 102
327 324 319 303 317 259 259 306 240 88 294 318 246 209 183 177 221 170 184 213 243 262 276 86 359 129 207 108 64 11 29 8 346 322 356 306 109 236 142 150 152 150 147 132 115
320 318 315 224 218 244 290 309 322 130 248 274 255 176 179 194 209 166 180 214 245 293 312 301 137 160 178 95 99 46 27 324 289 213 332 244 174 213 177 169 156 154 151 140 131
320 310 268 292 229 257 316 312 319 221 162 261 267 179 214 209 184 198 177 214 193 250 227 263 215 183 115 81 328 132 110 328 337 348 229 265 227 213 182 165 156 156 152 143 134
323 313 207 220 240 279 313 349 224 235 245 12 1 327 308 212 209 185 180 196 217 215 325 6 325 238 136 154 110 342 156 164 245 276 273 337 341 269 123 111 99 112 125 133 119
317 153 218 233 215 228 47 248 231 257 127 78 15 306 290 232 141 259 189 205 225 172 172 274 237 67 108 94 103 357 345 214 75 309 356 184 8 52 109 123 152 179 128 137 133
314 275 238 196 159 129 119 243 283 298 142 127 146 262 293 311 222 172 204 209 219 96 117 100 76 107 104 74 299 185 244 18 347 203 271 310 155 161 177 174 169 151 143 140 143
253 301 304 146 138 118 217 254 261 266 38 171 176 189 272 294 61 328 262 259 198 104 89 75 102 301 108 166 201 132 260 232 143 148 191 310 257 189 165 169 174 156 150 145 156
321 308 209 104 110 213 223 245 263 280 153 173 238 214 230 294 337 351 120 73 43 122 102 76 112 70 247 299 310 205 163 121 112 299 337 181 285 162 161 168 167 147 153 156 165
295 264 247 120 245 265 264 258 300 24 18 122 283 293 279 339 342 307 4 95 76 63 72 37 46 38 338 334 323 26 46 31 139 134 214 178 256 83 101 117 135 165 177 154 139
284 321 338 347 39 7 1 342 336 11 89 76 296 327 302 282 250 2 340 114 121 109 128 95 112 148 189 248 298 298 275 236 189 157 232 225 254 153 160 158 170 164 160 157 157
267 338 38 329 338 317 296 312 306 307 290 72 8 300 305 264 162 281 298 278 105 151 80 101 164 249 287 292 304 298 301 301 233 220 216 242 234 204 196 203 184 184 186 167 171
13 358 345 290 283 309 303 258 281 359 11 48 48 292 299 37 17 322 53 24 27 286 106 83 188 213 275 277 279 285 286 280 282 288 276 253 249 221 231 213 201 195 193 185 178
351 324 280 283 311 311 341 340 5 9 334 337 358 340 24 358 351 315 310 161 178 168 176 144 168 183 238 246 268 279 271 289 331 24 12 48 352 337 331 26 5 255 205 177 174